Year,Month,Day,Hour,Minute,Value (Times are PST for temperature in C)
2021,04,16,00,01,10.30
2021,04,16,00,02,10.30
2021,04,16,00,03,10.30
2021,04,16,00,04,10.30
2021,04,16,00,05,10.20
2021,04,16,00,07,10.20
2021,04,16,00,08,10.20
2021,04,16,00,09,10.10
2021,04,16,00,10,10.10
2021,04,16,00,11,10.10
2021,04,16,00,12,10.00
2021,04,16,00,13,10.00
2021,04,16,00,14,9.90
2021,04,16,00,15,9.90
2021,04,16,00,16,9.90
2021,04,16,00,17,9.90
2021,04,16,00,18,9.90
2021,04,16,00,19,9.90
2021,04,16,00,20,9.80
2021,04,16,00,22,9.80
2021,04,16,00,23,9.80
2021,04,16,00,24,9.70
2021,04,16,00,25,9.70
2021,04,16,00,26,9.70
2021,04,16,00,27,9.70
2021,04,16,00,28,9.60
2021,04,16,00,29,9.60
2021,04,16,00,30,9.60
2021,04,16,00,31,9.60
2021,04,16,00,32,9.50
2021,04,16,00,33,9.50
2021,04,16,00,34,9.40
2021,04,16,00,35,9.40
2021,04,16,00,36,9.40
2021,04,16,00,37,9.40
2021,04,16,00,38,9.30
2021,04,16,00,39,9.30
2021,04,16,00,40,9.30
2021,04,16,00,41,9.30
2021,04,16,00,42,9.20
2021,04,16,00,43,9.20
2021,04,16,00,44,9.20
2021,04,16,00,45,9.20
2021,04,16,00,46,9.20
2021,04,16,00,47,9.10
2021,04,16,00,49,9.10
2021,04,16,00,50,9.10
2021,04,16,00,51,9.10
2021,04,16,00,52,9.00
2021,04,16,00,53,9.00
2021,04,16,00,54,9.00
2021,04,16,00,55,8.90
2021,04,16,00,56,8.90
2021,04,16,00,57,8.90
2021,04,16,00,58,8.90
2021,04,16,00,59,8.80
2021,04,16,01,00,8.80
2021,04,16,01,01,8.80
2021,04,16,01,02,8.80
2021,04,16,01,03,8.70
2021,04,16,01,04,8.70
2021,04,16,01,05,8.70
2021,04,16,01,07,8.70
2021,04,16,01,08,8.60
2021,04,16,01,09,8.60
2021,04,16,01,10,8.60
2021,04,16,01,11,8.60
2021,04,16,01,12,8.60
2021,04,16,01,13,8.50
2021,04,16,01,14,8.50
2021,04,16,01,15,8.40
2021,04,16,01,16,8.40
2021,04,16,01,17,8.40
2021,04,16,01,18,8.40
2021,04,16,01,19,8.30
2021,04,16,01,20,8.30
2021,04,16,01,21,8.30
2021,04,16,01,22,8.30
2021,04,16,01,23,8.30
2021,04,16,01,24,8.30
2021,04,16,01,25,8.30
2021,04,16,01,26,8.30
2021,04,16,01,27,8.30
2021,04,16,01,28,8.30
2021,04,16,01,29,8.20
2021,04,16,01,30,8.20
2021,04,16,01,31,8.20
2021,04,16,01,32,8.20
2021,04,16,01,33,8.20
2021,04,16,01,34,8.20
2021,04,16,01,35,8.10
2021,04,16,01,36,8.10
2021,04,16,01,37,8.10
2021,04,16,01,39,8.10
2021,04,16,01,40,8.00
2021,04,16,01,41,8.00
2021,04,16,01,42,8.00
2021,04,16,01,43,8.00
2021,04,16,01,44,8.00
2021,04,16,01,45,7.90
2021,04,16,01,46,7.90
2021,04,16,01,47,7.90
2021,04,16,01,48,7.90
2021,04,16,01,49,7.90
2021,04,16,01,50,7.80
2021,04,16,01,51,7.80
2021,04,16,01,52,7.80
2021,04,16,01,53,7.80
2021,04,16,01,54,7.80
2021,04,16,01,55,7.70
2021,04,16,01,56,7.70
2021,04,16,01,58,7.70
2021,04,16,01,59,7.70
2021,04,16,02,00,7.60
2021,04,16,02,01,7.60
2021,04,16,02,02,7.60
2021,04,16,02,03,7.60
2021,04,16,02,04,7.50
2021,04,16,02,05,7.50
2021,04,16,02,06,7.40
2021,04,16,02,07,7.40
2021,04,16,02,08,7.40
2021,04,16,02,09,7.30
2021,04,16,02,10,7.30
2021,04,16,02,12,7.30
2021,04,16,02,13,7.30
2021,04,16,02,14,7.20
2021,04,16,02,15,7.20
2021,04,16,02,16,7.20
2021,04,16,02,17,7.20
2021,04,16,02,18,7.10
2021,04,16,02,19,7.10
2021,04,16,02,20,7.10
2021,04,16,02,21,7.10
2021,04,16,02,22,7.10
2021,04,16,02,23,7.10
2021,04,16,02,24,7.00
2021,04,16,02,25,7.00
2021,04,16,02,26,7.00
2021,04,16,02,27,7.00
2021,04,16,02,28,7.00
2021,04,16,02,29,7.00
2021,04,16,02,30,7.00
2021,04,16,02,31,7.00
2021,04,16,02,32,7.00
2021,04,16,02,34,7.00
2021,04,16,02,35,7.00
2021,04,16,02,36,7.00
2021,04,16,02,37,7.00
2021,04,16,02,38,7.00
2021,04,16,02,39,7.00
2021,04,16,02,40,7.00
2021,04,16,02,41,7.00
2021,04,16,02,42,7.00
2021,04,16,02,43,7.00
2021,04,16,02,44,7.00
2021,04,16,02,45,6.90
2021,04,16,02,46,7.00
2021,04,16,02,47,6.90
2021,04,16,02,48,6.90
2021,04,16,02,49,6.90
2021,04,16,02,50,6.90
2021,04,16,02,51,6.90
2021,04,16,02,52,6.90
2021,04,16,02,53,6.80
2021,04,16,02,54,6.80
2021,04,16,02,55,6.80
2021,04,16,02,56,6.80
2021,04,16,02,57,6.80
2021,04,16,02,58,6.70
2021,04,16,03,00,6.70
2021,04,16,03,01,6.70
2021,04,16,03,02,6.70
2021,04,16,03,03,6.70
2021,04,16,03,04,6.60
2021,04,16,03,05,6.60
2021,04,16,03,06,6.60
2021,04,16,03,07,6.60
2021,04,16,03,08,6.60
2021,04,16,03,10,6.60
2021,04,16,03,11,6.50
2021,04,16,03,12,6.50
2021,04,16,03,13,6.40
2021,04,16,03,14,6.40
2021,04,16,03,16,6.40
2021,04,16,03,17,6.40
2021,04,16,03,18,6.40
2021,04,16,03,19,6.30
2021,04,16,03,20,6.30
2021,04,16,03,21,6.30
2021,04,16,03,22,6.30
2021,04,16,03,23,6.30
2021,04,16,03,24,6.30
2021,04,16,03,25,6.20
2021,04,16,03,27,6.20
2021,04,16,03,28,6.20
2021,04,16,03,29,6.20
2021,04,16,03,30,6.10
2021,04,16,03,31,6.10
2021,04,16,03,32,6.10
2021,04,16,03,33,6.10
2021,04,16,03,34,6.10
2021,04,16,03,35,6.10
2021,04,16,03,36,6.00
2021,04,16,03,37,6.00
2021,04,16,03,38,6.00
2021,04,16,03,39,5.90
2021,04,16,03,40,5.90
2021,04,16,03,42,5.90
2021,04,16,03,43,5.90
2021,04,16,03,44,5.90
2021,04,16,03,45,5.90
2021,04,16,03,46,5.90
2021,04,16,03,47,5.90
2021,04,16,03,48,5.90
2021,04,16,03,49,5.90
2021,04,16,03,50,5.90
2021,04,16,03,52,5.90
2021,04,16,03,53,5.90
2021,04,16,03,54,5.90
2021,04,16,03,55,5.90
2021,04,16,03,56,5.80
2021,04,16,03,57,5.80
2021,04,16,03,58,5.80
2021,04,16,03,59,5.80
2021,04,16,04,00,5.80
2021,04,16,04,01,5.80
2021,04,16,04,02,5.80
2021,04,16,04,03,5.80
2021,04,16,04,04,5.80
2021,04,16,04,05,5.80
2021,04,16,04,06,5.70
2021,04,16,04,08,5.70
2021,04,16,04,09,5.70
2021,04,16,04,10,5.70
2021,04,16,04,11,5.60
2021,04,16,04,12,5.60
2021,04,16,04,13,5.60
2021,04,16,04,15,5.50
2021,04,16,04,16,5.50
2021,04,16,04,17,5.50
2021,04,16,04,18,5.40
2021,04,16,04,19,5.40
2021,04,16,04,20,5.40
2021,04,16,04,22,5.40
2021,04,16,04,23,5.30
2021,04,16,04,24,5.30
2021,04,16,04,25,5.30
2021,04,16,04,26,5.30
2021,04,16,04,27,5.30
2021,04,16,04,28,5.30
2021,04,16,04,29,5.30
2021,04,16,04,30,5.20
2021,04,16,04,31,5.20
2021,04,16,04,32,5.20
2021,04,16,04,33,5.20
2021,04,16,04,34,5.20
2021,04,16,04,35,5.20
2021,04,16,04,36,5.20
2021,04,16,04,37,5.20
2021,04,16,04,39,5.10
2021,04,16,04,40,5.10
2021,04,16,04,41,5.10
2021,04,16,04,42,5.10
2021,04,16,04,43,5.10
2021,04,16,04,44,5.10
2021,04,16,04,45,5.10
2021,04,16,04,46,5.10
2021,04,16,04,47,5.00
2021,04,16,04,48,5.00
2021,04,16,04,49,5.00
2021,04,16,04,50,4.90
2021,04,16,04,51,4.90
2021,04,16,04,52,4.90
2021,04,16,04,53,4.90
2021,04,16,04,54,4.90
2021,04,16,04,56,4.80
2021,04,16,04,57,4.80
2021,04,16,04,58,4.80
2021,04,16,04,59,4.80
2021,04,16,05,00,4.80
2021,04,16,05,01,4.80
2021,04,16,05,02,4.70
2021,04,16,05,03,4.70
2021,04,16,05,04,4.70
2021,04,16,05,05,4.70
2021,04,16,05,06,4.70
2021,04,16,05,07,4.70
2021,04,16,05,08,4.70
2021,04,16,05,10,4.70
2021,04,16,05,11,4.70
2021,04,16,05,13,4.70
2021,04,16,05,14,4.70
2021,04,16,05,15,4.70
2021,04,16,05,16,4.70
2021,04,16,05,17,4.70
2021,04,16,05,18,4.70
2021,04,16,05,19,4.70
2021,04,16,05,21,4.70
2021,04,16,05,22,4.70
2021,04,16,05,23,4.70
2021,04,16,05,25,4.70
2021,04,16,05,26,4.70
2021,04,16,05,27,4.70
2021,04,16,05,28,4.70
2021,04,16,05,30,4.60
2021,04,16,05,31,4.60
2021,04,16,05,32,4.60
2021,04,16,05,33,4.60
2021,04,16,05,35,4.50
2021,04,16,05,36,4.50
2021,04,16,05,37,4.50
2021,04,16,05,38,4.40
2021,04,16,05,39,4.40
2021,04,16,05,41,4.40
2021,04,16,05,42,4.40
2021,04,16,05,44,4.40
2021,04,16,05,45,4.40
2021,04,16,05,46,4.30
2021,04,16,05,47,4.30
2021,04,16,05,48,4.30
2021,04,16,05,49,4.30
2021,04,16,05,50,4.30
2021,04,16,05,51,4.30
2021,04,16,05,52,4.30
2021,04,16,05,54,4.30
2021,04,16,05,55,4.30
2021,04,16,05,56,4.30
2021,04,16,05,57,4.20
2021,04,16,05,59,4.20
2021,04,16,06,00,4.20
2021,04,16,06,01,4.20
2021,04,16,06,03,4.20
2021,04,16,06,04,4.20
2021,04,16,06,05,4.10
2021,04,16,06,07,4.10
2021,04,16,06,08,4.10
2021,04,16,06,09,4.10
2021,04,16,06,10,4.10
2021,04,16,06,11,4.00
2021,04,16,06,13,4.00
2021,04,16,06,14,4.00
2021,04,16,06,15,3.90
2021,04,16,06,16,3.90
2021,04,16,06,17,3.90
2021,04,16,06,18,3.90
2021,04,16,06,19,3.90
2021,04,16,06,20,3.80
2021,04,16,06,21,3.80
2021,04,16,06,23,3.80
2021,04,16,06,24,3.80
2021,04,16,06,25,3.80
2021,04,16,06,26,3.80
2021,04,16,06,27,3.80
2021,04,16,06,28,3.80
2021,04,16,06,30,3.80
2021,04,16,06,31,3.80
2021,04,16,06,32,3.80
2021,04,16,06,33,3.80
2021,04,16,06,35,3.80
2021,04,16,06,36,3.80
2021,04,16,06,37,3.80
2021,04,16,06,38,3.80
2021,04,16,06,39,3.80
2021,04,16,06,40,3.80
2021,04,16,06,41,3.80
2021,04,16,06,42,3.80
2021,04,16,06,43,3.80
2021,04,16,06,44,3.80
2021,04,16,06,45,3.80
2021,04,16,06,46,3.80
2021,04,16,06,47,3.80
2021,04,16,06,48,3.90
2021,04,16,06,49,3.90
2021,04,16,06,50,3.90
2021,04,16,06,51,3.90
2021,04,16,06,52,3.90
2021,04,16,06,53,3.90
2021,04,16,06,54,3.90
2021,04,16,06,55,3.90
2021,04,16,06,56,3.90
2021,04,16,06,57,3.90
2021,04,16,06,58,3.90
2021,04,16,06,59,3.90
2021,04,16,07,00,3.90
2021,04,16,07,01,3.90
2021,04,16,07,02,3.90
2021,04,16,07,03,3.90
2021,04,16,07,04,4.00
2021,04,16,07,05,4.00
2021,04,16,07,06,4.00
2021,04,16,07,07,4.00
2021,04,16,07,08,4.00
2021,04,16,07,09,4.00
2021,04,16,07,10,4.00
2021,04,16,07,11,4.00
2021,04,16,07,12,4.00
2021,04,16,07,13,4.00
2021,04,16,07,14,4.10
2021,04,16,07,15,4.10
2021,04,16,07,16,4.10
2021,04,16,07,17,4.10
2021,04,16,07,18,4.20
2021,04,16,07,19,4.20
2021,04,16,07,20,4.20
2021,04,16,07,21,4.30
2021,04,16,07,22,4.30
2021,04,16,07,23,4.40
2021,04,16,07,24,4.40
2021,04,16,07,25,4.40
2021,04,16,07,26,4.50
2021,04,16,07,27,4.60
2021,04,16,07,28,4.60
2021,04,16,07,29,4.70
2021,04,16,07,30,4.70
2021,04,16,07,31,4.80
2021,04,16,07,32,4.80
2021,04,16,07,33,4.90
2021,04,16,07,34,4.90
2021,04,16,07,35,4.90
2021,04,16,07,36,4.90
2021,04,16,07,37,5.00
2021,04,16,07,38,5.10
2021,04,16,07,39,5.10
2021,04,16,07,40,5.10
2021,04,16,07,41,5.10
2021,04,16,07,42,5.20
2021,04,16,07,43,5.20
2021,04,16,07,44,5.20
2021,04,16,07,45,5.30
2021,04,16,07,46,5.30
2021,04,16,07,47,5.30
2021,04,16,07,48,5.30
2021,04,16,07,49,5.40
2021,04,16,07,50,5.40
2021,04,16,07,51,5.40
2021,04,16,07,52,5.60
2021,04,16,07,53,5.60
2021,04,16,07,54,5.70
2021,04,16,07,55,5.80
2021,04,16,07,56,5.80
2021,04,16,07,57,5.90
2021,04,16,07,58,6.00
2021,04,16,07,59,6.10
2021,04,16,08,00,6.20
2021,04,16,08,01,6.30
2021,04,16,08,02,6.40
2021,04,16,08,03,6.40
2021,04,16,08,04,6.50
2021,04,16,08,05,6.60
2021,04,16,08,06,6.70
2021,04,16,08,07,6.80
2021,04,16,08,08,6.80
2021,04,16,08,09,6.90
2021,04,16,08,10,7.00
2021,04,16,08,11,7.10
2021,04,16,08,12,7.20
2021,04,16,08,13,7.30
2021,04,16,08,14,7.40
2021,04,16,08,15,7.40
2021,04,16,08,16,7.60
2021,04,16,08,17,7.60
2021,04,16,08,18,7.70
2021,04,16,08,19,7.80
2021,04,16,08,20,7.80
2021,04,16,08,21,7.90
2021,04,16,08,22,7.90
2021,04,16,08,23,8.00
2021,04,16,08,24,8.00
2021,04,16,08,25,8.10
2021,04,16,08,26,8.10
2021,04,16,08,27,8.20
2021,04,16,08,28,8.20
2021,04,16,08,29,8.30
2021,04,16,08,30,8.40
2021,04,16,08,31,8.40
2021,04,16,08,32,8.60
2021,04,16,08,33,8.70
2021,04,16,08,34,8.70
2021,04,16,08,35,8.80
2021,04,16,08,36,8.90
2021,04,16,08,37,8.90
2021,04,16,08,38,9.00
2021,04,16,08,39,9.10
2021,04,16,08,40,9.10
2021,04,16,08,41,9.20
2021,04,16,08,42,9.20
2021,04,16,08,43,9.30
2021,04,16,08,44,9.30
2021,04,16,08,45,9.40
2021,04,16,08,46,9.40
2021,04,16,08,47,9.50
2021,04,16,08,48,9.60
2021,04,16,08,49,9.70
2021,04,16,08,50,9.70
2021,04,16,08,51,9.80
2021,04,16,08,52,9.90
2021,04,16,08,53,9.90
2021,04,16,08,54,10.00
2021,04,16,08,55,10.10
2021,04,16,08,56,10.20
2021,04,16,08,57,10.20
2021,04,16,08,58,10.30
2021,04,16,08,59,10.30
2021,04,16,09,00,10.30
2021,04,16,09,01,10.40
2021,04,16,09,02,10.40
2021,04,16,09,03,10.40
2021,04,16,09,04,10.40
2021,04,16,09,05,10.50
2021,04,16,09,06,10.60
2021,04,16,09,07,10.60
2021,04,16,09,08,10.70
2021,04,16,09,09,10.70
2021,04,16,09,10,10.70
2021,04,16,09,11,10.70
2021,04,16,09,12,10.70
2021,04,16,09,13,10.80
2021,04,16,09,14,10.80
2021,04,16,09,15,10.80
2021,04,16,09,16,10.90
2021,04,16,09,17,10.90
2021,04,16,09,18,11.10
2021,04,16,09,19,11.10
2021,04,16,09,20,11.20
2021,04,16,09,21,11.30
2021,04,16,09,22,11.40
2021,04,16,09,23,11.50
2021,04,16,09,24,11.60
2021,04,16,09,25,11.70
2021,04,16,09,26,11.70
2021,04,16,09,27,11.80
2021,04,16,09,28,11.80
2021,04,16,09,29,11.90
2021,04,16,09,30,12.00
2021,04,16,09,31,12.10
2021,04,16,09,32,12.20
2021,04,16,09,33,12.20
2021,04,16,09,34,12.30
2021,04,16,09,35,12.40
2021,04,16,09,36,12.40
2021,04,16,09,37,12.50
2021,04,16,09,38,12.60
2021,04,16,09,39,12.60
2021,04,16,09,40,12.70
2021,04,16,09,41,12.70
2021,04,16,09,42,12.70
2021,04,16,09,43,12.80
2021,04,16,09,44,12.80
2021,04,16,09,45,12.90
2021,04,16,09,46,12.90
2021,04,16,09,47,13.00
2021,04,16,09,48,13.10
2021,04,16,09,49,13.10
2021,04,16,09,50,13.20
2021,04,16,09,51,13.20
2021,04,16,09,52,13.30
2021,04,16,09,53,13.30
2021,04,16,09,54,13.40
2021,04,16,09,55,13.40
2021,04,16,09,56,13.50
2021,04,16,09,57,13.60
2021,04,16,09,58,13.60
2021,04,16,09,59,13.70
2021,04,16,10,00,13.70
2021,04,16,10,01,13.80
2021,04,16,10,02,13.80
2021,04,16,10,03,13.90
2021,04,16,10,04,14.00
2021,04,16,10,05,14.10
2021,04,16,10,06,14.10
2021,04,16,10,07,14.10
2021,04,16,10,08,14.20
2021,04,16,10,09,14.20
2021,04,16,10,10,14.30
2021,04,16,10,11,14.40
2021,04,16,10,12,14.40
2021,04,16,10,13,14.40
2021,04,16,10,14,14.50
2021,04,16,10,15,14.60
2021,04,16,10,16,14.70
2021,04,16,10,17,14.70
2021,04,16,10,18,14.70
2021,04,16,10,19,14.70
2021,04,16,10,20,14.70
2021,04,16,10,21,14.70
2021,04,16,10,22,14.80
2021,04,16,10,23,14.80
2021,04,16,10,24,14.80
2021,04,16,10,25,14.80
2021,04,16,10,26,14.80
2021,04,16,10,27,14.80
2021,04,16,10,28,14.80
2021,04,16,10,29,14.90
2021,04,16,10,30,15.00
2021,04,16,10,31,15.10
2021,04,16,10,32,15.20
2021,04,16,10,33,15.30
2021,04,16,10,34,15.40
2021,04,16,10,35,15.40
2021,04,16,10,36,15.50
2021,04,16,10,37,15.60
2021,04,16,10,38,15.60
2021,04,16,10,39,15.70
2021,04,16,10,40,15.80
2021,04,16,10,41,15.80
2021,04,16,10,42,15.90
2021,04,16,10,43,15.90
2021,04,16,10,44,16.10
2021,04,16,10,45,16.10
2021,04,16,10,46,16.20
2021,04,16,10,47,16.30
2021,04,16,10,48,16.30
2021,04,16,10,49,16.40
2021,04,16,10,50,16.50
2021,04,16,10,51,16.60
2021,04,16,10,52,16.70
2021,04,16,10,53,16.70
2021,04,16,10,54,16.80
2021,04,16,10,55,16.80
2021,04,16,10,56,16.90
2021,04,16,10,57,16.90
2021,04,16,10,58,16.90
2021,04,16,10,59,16.90
2021,04,16,11,00,16.90
2021,04,16,11,01,17.00
2021,04,16,11,02,17.10
2021,04,16,11,03,17.10
2021,04,16,11,04,17.20
2021,04,16,11,05,17.20
2021,04,16,11,06,17.20
2021,04,16,11,07,17.20
2021,04,16,11,08,17.10
2021,04,16,11,09,17.10
2021,04,16,11,10,17.20
2021,04,16,11,11,17.20
2021,04,16,11,12,17.30
2021,04,16,11,13,17.30
2021,04,16,11,14,17.40
2021,04,16,11,15,17.40
2021,04,16,11,16,17.40
2021,04,16,11,17,17.50
2021,04,16,11,18,17.50
2021,04,16,11,19,17.60
2021,04,16,11,20,17.60
2021,04,16,11,21,17.70
2021,04,16,11,22,17.70
2021,04,16,11,23,17.80
2021,04,16,11,24,17.80
2021,04,16,11,25,17.90
2021,04,16,11,26,17.90
2021,04,16,11,27,17.90
2021,04,16,11,28,17.90
2021,04,16,11,29,18.00
2021,04,16,11,30,18.00
2021,04,16,11,31,18.10
2021,04,16,11,32,18.10
2021,04,16,11,33,18.20
2021,04,16,11,34,18.30
2021,04,16,11,35,18.30
2021,04,16,11,36,18.40
2021,04,16,11,37,18.50
2021,04,16,11,38,18.60
2021,04,16,11,39,18.60
2021,04,16,11,40,18.60
2021,04,16,11,41,18.70
2021,04,16,11,42,18.70
2021,04,16,11,43,18.70
2021,04,16,11,44,18.70
2021,04,16,11,45,18.70
2021,04,16,11,46,18.80
2021,04,16,11,47,18.80
2021,04,16,11,48,18.90
2021,04,16,11,49,18.90
2021,04,16,11,50,19.00
2021,04,16,11,51,19.10
2021,04,16,11,52,19.10
2021,04,16,11,53,19.20
2021,04,16,11,54,19.20
2021,04,16,11,55,19.20
2021,04,16,11,56,19.10
2021,04,16,11,57,19.10
2021,04,16,11,58,19.10
2021,04,16,11,59,19.10
2021,04,16,12,00,19.10
2021,04,16,12,01,19.00
2021,04,16,12,02,19.00
2021,04,16,12,03,19.00
2021,04,16,12,04,19.10
2021,04,16,12,05,19.10
2021,04,16,12,06,19.20
2021,04,16,12,07,19.30
2021,04,16,12,08,19.40
2021,04,16,12,09,19.60
2021,04,16,12,10,19.70
2021,04,16,12,11,19.70
2021,04,16,12,12,19.80
2021,04,16,12,13,19.80
2021,04,16,12,14,19.90
2021,04,16,12,15,19.90
2021,04,16,12,16,20.00
2021,04,16,12,17,20.10
2021,04,16,12,18,20.20
2021,04,16,12,19,20.20
2021,04,16,12,20,20.30
2021,04,16,12,21,20.30
2021,04,16,12,22,20.40
2021,04,16,12,23,20.50
2021,04,16,12,24,20.60
2021,04,16,12,25,20.70
2021,04,16,12,26,20.80
2021,04,16,12,27,20.90
2021,04,16,12,28,21.10
2021,04,16,12,29,21.20
2021,04,16,12,30,21.20
2021,04,16,12,31,21.30
2021,04,16,12,32,21.30
2021,04,16,12,33,21.30
2021,04,16,12,34,21.30
2021,04,16,12,35,21.20
2021,04,16,12,36,21.20
2021,04,16,12,37,21.20
2021,04,16,12,38,21.20
2021,04,16,12,39,21.20
2021,04,16,12,40,21.20
2021,04,16,12,41,21.30
2021,04,16,12,42,21.30
2021,04,16,12,43,21.30
2021,04,16,12,44,21.30
2021,04,16,12,45,21.30
2021,04,16,12,46,21.30
2021,04,16,12,47,21.30
2021,04,16,12,48,21.30
2021,04,16,12,49,21.30
2021,04,16,12,50,21.40
2021,04,16,12,51,21.50
2021,04,16,12,52,21.60
2021,04,16,12,53,21.70
2021,04,16,12,54,21.70
2021,04,16,12,55,21.80
2021,04,16,12,56,21.80
2021,04,16,12,57,21.90
2021,04,16,12,58,22.00
2021,04,16,12,59,22.10
2021,04,16,13,00,22.20
2021,04,16,13,01,22.20
2021,04,16,13,02,22.30
2021,04,16,13,03,22.40
2021,04,16,13,04,22.40
2021,04,16,13,05,22.50
2021,04,16,13,06,22.50
2021,04,16,13,07,22.50
2021,04,16,13,08,22.60
2021,04,16,13,09,22.60
2021,04,16,13,10,22.60
2021,04,16,13,11,22.70
2021,04,16,13,12,22.80
2021,04,16,13,13,22.90
2021,04,16,13,14,22.90
2021,04,16,13,15,23.00
2021,04,16,13,16,23.00
2021,04,16,13,17,23.10
2021,04,16,13,18,23.10
2021,04,16,13,19,23.20
2021,04,16,13,20,23.20
2021,04,16,13,21,23.30
2021,04,16,13,22,23.30
2021,04,16,13,23,23.40
2021,04,16,13,24,23.40
2021,04,16,13,25,23.50
2021,04,16,13,26,23.60
2021,04,16,13,27,23.70
2021,04,16,13,28,23.80
2021,04,16,13,29,23.80
2021,04,16,13,30,23.90
2021,04,16,13,31,23.90
2021,04,16,13,32,23.90
2021,04,16,13,33,24.00
2021,04,16,13,34,24.10
2021,04,16,13,35,24.10
2021,04,16,13,36,24.20
2021,04,16,13,37,24.30
2021,04,16,13,38,24.30
2021,04,16,13,39,24.40
2021,04,16,13,40,24.40
2021,04,16,13,41,24.40
2021,04,16,13,42,24.40
2021,04,16,13,43,24.50
2021,04,16,13,44,24.60
2021,04,16,13,45,24.60
2021,04,16,13,46,24.70
2021,04,16,13,47,24.70
2021,04,16,13,48,24.80
2021,04,16,13,49,24.80
2021,04,16,13,50,24.80
2021,04,16,13,51,24.90
2021,04,16,13,52,24.90
2021,04,16,13,53,24.90
2021,04,16,13,54,25.00
2021,04,16,13,55,25.00
2021,04,16,13,56,25.10
2021,04,16,13,57,25.10
2021,04,16,13,58,25.20
2021,04,16,13,59,25.20
2021,04,16,14,00,25.20
2021,04,16,14,01,25.30
2021,04,16,14,02,25.30
2021,04,16,14,03,25.40
2021,04,16,14,04,25.40
2021,04,16,14,05,25.60
2021,04,16,14,06,25.60
2021,04,16,14,07,25.70
2021,04,16,14,08,25.80
2021,04,16,14,09,25.80
2021,04,16,14,10,25.80
2021,04,16,14,11,25.90
2021,04,16,14,12,25.90
2021,04,16,14,13,26.00
2021,04,16,14,14,26.10
2021,04,16,14,15,26.20
2021,04,16,14,16,26.20
2021,04,16,14,17,26.30
2021,04,16,14,18,26.40
2021,04,16,14,19,26.40
2021,04,16,14,20,26.50
2021,04,16,14,21,26.40
2021,04,16,14,22,26.40
2021,04,16,14,23,26.30
2021,04,16,14,24,26.30
2021,04,16,14,25,26.20
2021,04,16,14,27,26.20
2021,04,16,14,28,26.10
2021,04,16,14,29,26.20
2021,04,16,14,30,26.20
2021,04,16,14,32,26.30
2021,04,16,14,33,26.30
2021,04,16,14,34,26.30
2021,04,16,14,35,26.30
2021,04,16,14,36,26.40
2021,04,16,14,37,26.40
2021,04,16,14,38,26.40
2021,04,16,14,39,26.40
2021,04,16,14,40,26.50
2021,04,16,14,41,26.60
2021,04,16,14,42,26.60
2021,04,16,14,43,26.70
2021,04,16,14,44,26.70
2021,04,16,14,45,26.70
2021,04,16,14,47,26.80
2021,04,16,14,48,26.80
2021,04,16,14,49,26.80
2021,04,16,14,50,26.90
2021,04,16,14,51,26.90
2021,04,16,14,52,27.00
2021,04,16,14,53,27.10
2021,04,16,14,54,27.10
2021,04,16,14,55,27.20
2021,04,16,14,56,27.20
2021,04,16,14,57,27.30
2021,04,16,14,58,27.30
2021,04,16,14,59,27.30
2021,04,16,15,00,27.30
2021,04,16,15,01,27.30
2021,04,16,15,02,27.30
2021,04,16,15,03,27.30
2021,04,16,15,04,27.30
2021,04,16,15,05,27.30
2021,04,16,15,06,27.30
2021,04,16,15,07,27.30
2021,04,16,15,08,27.40
2021,04,16,15,09,27.40
2021,04,16,15,10,27.40
2021,04,16,15,12,27.40
2021,04,16,15,13,27.40
2021,04,16,15,14,27.40
2021,04,16,15,15,27.40
2021,04,16,15,16,27.40
2021,04,16,15,17,27.30
2021,04,16,15,18,27.30
2021,04,16,15,19,27.30
2021,04,16,15,20,27.30
2021,04,16,15,21,27.30
2021,04,16,15,22,27.30
2021,04,16,15,23,27.30
2021,04,16,15,24,27.20
2021,04,16,15,25,27.20
2021,04,16,15,26,27.20
2021,04,16,15,27,27.10
2021,04,16,15,28,27.10
2021,04,16,15,29,27.10
2021,04,16,15,30,27.00
2021,04,16,15,31,27.00
2021,04,16,15,32,27.00
2021,04,16,15,33,27.00
2021,04,16,15,34,27.00
2021,04,16,15,35,27.00
2021,04,16,15,36,27.00
2021,04,16,15,37,27.00
2021,04,16,15,38,27.00
2021,04,16,15,39,26.90
2021,04,16,15,40,26.90
2021,04,16,15,41,26.90
2021,04,16,15,42,26.90
2021,04,16,15,43,26.90
2021,04,16,15,44,26.90
2021,04,16,15,45,26.90
2021,04,16,15,46,27.00
2021,04,16,15,47,27.00
2021,04,16,15,48,26.90
2021,04,16,15,49,26.90
2021,04,16,15,50,26.90
2021,04,16,15,51,26.80
2021,04,16,15,52,26.80
2021,04,16,15,53,26.80
2021,04,16,15,54,26.70
2021,04,16,15,55,26.70
2021,04,16,15,56,26.70
2021,04,16,15,57,26.70
2021,04,16,15,58,26.70
2021,04,16,15,59,26.70
2021,04,16,16,00,26.70
2021,04,16,16,01,26.70
2021,04,16,16,02,26.70
2021,04,16,16,03,26.70
2021,04,16,16,04,26.70
2021,04,16,16,05,26.70
2021,04,16,16,06,26.70
2021,04,16,16,07,26.70
2021,04,16,16,08,26.80
2021,04,16,16,09,26.80
2021,04,16,16,10,26.80
2021,04,16,16,11,26.90
2021,04,16,16,12,26.90
2021,04,16,16,13,26.90
2021,04,16,16,14,26.80
2021,04,16,16,15,26.80
2021,04,16,16,16,26.80
2021,04,16,16,17,26.80
2021,04,16,16,18,26.80
2021,04,16,16,19,26.70
2021,04,16,16,20,26.70
2021,04,16,16,21,26.70
2021,04,16,16,22,26.80
2021,04,16,16,23,26.80
2021,04,16,16,24,26.80
2021,04,16,16,25,26.80
2021,04,16,16,26,26.90
2021,04,16,16,27,26.90
2021,04,16,16,28,26.90
2021,04,16,16,29,26.90
2021,04,16,16,30,26.90
2021,04,16,16,31,26.90
2021,04,16,16,32,26.90
2021,04,16,16,33,26.90
2021,04,16,16,34,26.90
2021,04,16,16,35,26.90
2021,04,16,16,36,26.80
2021,04,16,16,37,26.80
2021,04,16,16,38,26.80
2021,04,16,16,39,26.70
2021,04,16,16,40,26.70
2021,04,16,16,41,26.70
2021,04,16,16,42,26.70
2021,04,16,16,43,26.60
2021,04,16,16,44,26.60
2021,04,16,16,45,26.60
2021,04,16,16,46,26.60
2021,04,16,16,47,26.60
2021,04,16,16,48,26.60
2021,04,16,16,49,26.50
2021,04,16,16,50,26.50
2021,04,16,16,51,26.50
2021,04,16,16,52,26.50
2021,04,16,16,53,26.50
2021,04,16,16,54,26.50
2021,04,16,16,55,26.60
2021,04,16,16,56,26.50
2021,04,16,16,57,26.50
2021,04,16,16,58,26.50
2021,04,16,16,59,26.50
2021,04,16,17,00,26.50
2021,04,16,17,01,26.40
2021,04,16,17,02,26.40
2021,04,16,17,03,26.40
2021,04,16,17,04,26.40
2021,04,16,17,05,26.40
2021,04,16,17,06,26.50
2021,04,16,17,07,26.50
2021,04,16,17,08,26.50
2021,04,16,17,09,26.40
2021,04,16,17,10,26.40
2021,04,16,17,11,26.40
2021,04,16,17,12,26.40
2021,04,16,17,13,26.30
2021,04,16,17,14,26.30
2021,04,16,17,15,26.30
2021,04,16,17,16,26.30
2021,04,16,17,17,26.30
2021,04,16,17,18,26.30
2021,04,16,17,19,26.30
2021,04,16,17,20,26.30
2021,04,16,17,21,26.20
2021,04,16,17,22,26.20
2021,04,16,17,23,26.20
2021,04,16,17,24,26.20
2021,04,16,17,25,26.20
2021,04,16,17,26,26.10
2021,04,16,17,27,26.10
2021,04,16,17,28,26.10
2021,04,16,17,29,26.10
2021,04,16,17,30,26.10
2021,04,16,17,31,26.10
2021,04,16,17,32,26.10
2021,04,16,17,33,26.10
2021,04,16,17,34,26.10
2021,04,16,17,35,26.00
2021,04,16,17,36,26.00
2021,04,16,17,37,26.00
2021,04,16,17,38,25.90
2021,04,16,17,39,25.90
2021,04,16,17,40,25.90
2021,04,16,17,41,25.90
2021,04,16,17,42,25.90
2021,04,16,17,43,25.80
2021,04,16,17,44,25.80
2021,04,16,17,45,25.80
2021,04,16,17,46,25.80
2021,04,16,17,47,25.80
2021,04,16,17,48,25.80
2021,04,16,17,49,25.80
2021,04,16,17,50,25.80
2021,04,16,17,52,25.70
2021,04,16,17,53,25.70
2021,04,16,17,54,25.70
2021,04,16,17,55,25.70
2021,04,16,17,56,25.70
2021,04,16,17,57,25.70
2021,04,16,17,58,25.70
2021,04,16,17,59,25.70
2021,04,16,18,01,25.70
2021,04,16,18,02,25.70
2021,04,16,18,03,25.60
2021,04,16,18,04,25.60
2021,04,16,18,05,25.60
2021,04,16,18,06,25.60
2021,04,16,18,07,25.60
2021,04,16,18,08,25.60
2021,04,16,18,09,25.50
2021,04,16,18,10,25.50
2021,04,16,18,12,25.40
2021,04,16,18,13,25.40
2021,04,16,18,14,25.40
2021,04,16,18,15,25.40
2021,04,16,18,16,25.40
2021,04,16,18,17,25.40
2021,04,16,18,18,25.30
2021,04,16,18,19,25.30
2021,04,16,18,20,25.30
2021,04,16,18,22,25.30
2021,04,16,18,23,25.30
2021,04,16,18,24,25.30